AXY47E LEPA-LPPT

Flight info

Callsign AXY47E
Flight time N/A
Altitude 37000
Route EPAMA N733 VLC/N0373F130 N733 CJN N975 CCS DCT UPULO
Aircraft A346/H-SDE2E3FGHIJ3J4J5M1RWXY/LB1D1

Departure

Time N/A
Airport Palma de Mallorca Airport (LEPA)

Arrival

Time 2026-05-06 17:42
Airport Lisbon Humberto Delgado Airport (LPPT)
Time Latitude Longitude Altitude Speed Heading
2026-05-06 17:17 39.19492 -7.28546 32366 ft 437 kts 244°
2026-05-06 17:17 39.18104 -7.32082 31727 ft 437 kts 243°
2026-05-06 17:17 39.16746 -7.35536 31089 ft 437 kts 243°
2026-05-06 17:17 39.15368 -7.39035 30438 ft 438 kts 243°
2026-05-06 17:18 39.13982 -7.42552 29731 ft 440 kts 243°
2026-05-06 17:18 39.12588 -7.46081 28975 ft 441 kts 243°
2026-05-06 17:18 39.11197 -7.49597 28259 ft 441 kts 243°
2026-05-06 17:18 39.09800 -7.53124 27687 ft 442 kts 243°
2026-05-06 17:19 39.08403 -7.56649 27298 ft 441 kts 243°
2026-05-06 17:19 39.07012 -7.60159 26814 ft 439 kts 243°
2026-05-06 17:19 39.05624 -7.63654 26328 ft 434 kts 243°
2026-05-06 17:19 39.04253 -7.67107 25869 ft 430 kts 243°
2026-05-06 17:20 39.02894 -7.70522 25442 ft 425 kts 243°
2026-05-06 17:20 39.01551 -7.73896 25020 ft 421 kts 242°
2026-05-06 17:20 39.00221 -7.77232 24595 ft 417 kts 242°
2026-05-06 17:20 38.98905 -7.80530 24171 ft 414 kts 242°
2026-05-06 17:21 38.97592 -7.83817 23756 ft 411 kts 242°
2026-05-06 17:21 38.96307 -7.87030 23399 ft 405 kts 242°
2026-05-06 17:21 38.95040 -7.90194 23295 ft 392 kts 242°
2026-05-06 17:21 38.93810 -7.93262 23164 ft 379 kts 242°
2026-05-06 17:22 38.92620 -7.96227 23056 ft 367 kts 242°
2026-05-06 17:22 38.91470 -7.99089 22951 ft 354 kts 242°
2026-05-06 17:22 38.90353 -8.01865 22842 ft 342 kts 241°
2026-05-06 17:22 38.89231 -8.04499 22853 ft 331 kts 240°
2026-05-06 17:23 38.88102 -8.07073 22868 ft 330 kts 240°
2026-05-06 17:23 38.86973 -8.09639 22873 ft 330 kts 240°
2026-05-06 17:23 38.85846 -8.12205 22875 ft 330 kts 240°
2026-05-06 17:23 38.84717 -8.14777 22873 ft 330 kts 240°
2026-05-06 17:24 38.83590 -8.17346 22864 ft 330 kts 240°
2026-05-06 17:24 38.82462 -8.19918 22873 ft 329 kts 240°
2026-05-06 17:24 38.81339 -8.22478 22865 ft 329 kts 240°
2026-05-06 17:24 38.80229 -8.25006 22832 ft 329 kts 240°
2026-05-06 17:25 38.79098 -8.27583 22443 ft 330 kts 240°
2026-05-06 17:25 38.77974 -8.30142 22055 ft 327 kts 240°
2026-05-06 17:25 38.76861 -8.32674 21695 ft 324 kts 240°
2026-05-06 17:25 38.75757 -8.35183 21362 ft 320 kts 240°
2026-05-06 17:26 38.74669 -8.37655 21031 ft 317 kts 240°
2026-05-06 17:26 38.73590 -8.40103 20716 ft 314 kts 240°
2026-05-06 17:26 38.72521 -8.42528 20385 ft 310 kts 240°
2026-05-06 17:26 38.71464 -8.44924 20056 ft 308 kts 240°
2026-05-06 17:27 38.70410 -8.47311 19717 ft 306 kts 240°
2026-05-06 17:27 38.69366 -8.49672 19417 ft 303 kts 239°
2026-05-06 17:27 38.68325 -8.52029 19105 ft 300 kts 239°
2026-05-06 17:27 38.67298 -8.54348 18780 ft 299 kts 239°
2026-05-06 17:28 38.66272 -8.56662 18454 ft 298 kts 239°
2026-05-06 17:28 38.65265 -8.58936 18124 ft 296 kts 239°
2026-05-06 17:28 38.64247 -8.61231 17793 ft 294 kts 239°
2026-05-06 17:28 38.63240 -8.63499 17488 ft 291 kts 239°
2026-05-06 17:29 38.62239 -8.65752 17181 ft 289 kts 239°
2026-05-06 17:29 38.61247 -8.67981 16873 ft 287 kts 239°
2026-05-06 17:29 38.60262 -8.70197 16559 ft 285 kts 239°
2026-05-06 17:29 38.59285 -8.72392 16268 ft 283 kts 239°
2026-05-06 17:30 38.58309 -8.74580 15981 ft 281 kts 239°
2026-05-06 17:30 38.57341 -8.76752 15688 ft 280 kts 239°
2026-05-06 17:30 38.56377 -8.78911 15381 ft 279 kts 240°
2026-05-06 17:30 38.55417 -8.81065 15100 ft 277 kts 240°
2026-05-06 17:31 38.54462 -8.83204 14813 ft 276 kts 240°
2026-05-06 17:31 38.53511 -8.85331 14526 ft 275 kts 240°
2026-05-06 17:31 38.52574 -8.87426 14406 ft 265 kts 240°
2026-05-06 17:31 38.51676 -8.89431 14419 ft 258 kts 240°
2026-05-06 17:32 38.50778 -8.91436 14428 ft 258 kts 240°
2026-05-06 17:32 38.49901 -8.93394 14406 ft 258 kts 240°
2026-05-06 17:32 38.49002 -8.95400 14409 ft 254 kts 240°
2026-05-06 17:32 38.48162 -8.97354 14289 ft 255 kts 243°
2026-05-06 17:33 38.47452 -8.99440 14263 ft 255 kts 249°
2026-05-06 17:33 38.46863 -9.01605 14108 ft 257 kts 250°
2026-05-06 17:33 38.46295 -9.03773 13535 ft 261 kts 250°
2026-05-06 17:33 38.45706 -9.06024 13152 ft 274 kts 251°
2026-05-06 17:34 38.45104 -9.08344 12878 ft 274 kts 251°
2026-05-06 17:34 38.44506 -9.10639 12644 ft 270 kts 251°
2026-05-06 17:34 38.43912 -9.12901 12340 ft 267 kts 251°
2026-05-06 17:34 38.43331 -9.15116 11973 ft 264 kts 251°
2026-05-06 17:35 38.42769 -9.17339 11617 ft 263 kts 257°
2026-05-06 17:35 38.42704 -9.19701 10928 ft 270 kts 282°
2026-05-06 17:35 38.43230 -9.22009 10317 ft 271 kts 288°
2026-05-06 17:36 38.44480 -9.26568 9028 ft 273 kts 301°
2026-05-06 17:36 38.45748 -9.28349 8368 ft 273 kts 329°
2026-05-06 17:36 38.47529 -9.29147 7725 ft 273 kts 356°
2026-05-06 17:36 38.49414 -9.28930 7104 ft 273 kts 16°
2026-05-06 17:37 38.51203 -9.28115 6488 ft 273 kts 22°
2026-05-06 17:37 38.52947 -9.27162 5848 ft 272 kts 23°
2026-05-06 17:37 38.54679 -9.26196 5214 ft 271 kts 22°
2026-05-06 17:37 38.56402 -9.25252 4658 ft 266 kts 21°
2026-05-06 17:38 38.58065 -9.24355 4283 ft 255 kts 21°
2026-05-06 17:38 38.59645 -9.23504 3927 ft 244 kts 21°
2026-05-06 17:38 38.61177 -9.22680 3597 ft 233 kts 18°
2026-05-06 17:38 38.62639 -9.21898 3298 ft 224 kts 20°
2026-05-06 17:39 38.64023 -9.21155 3100 ft 213 kts 19°
2026-05-06 17:39 38.65370 -9.20434 2835 ft 205 kts 18°
2026-05-06 17:39 38.66673 -9.19738 2517 ft 195 kts 18°
2026-05-06 17:39 38.67877 -9.19092 2151 ft 181 kts 19°
2026-05-06 17:40 38.68986 -9.18495 1943 ft 164 kts 18°
2026-05-06 17:40 38.70007 -9.17946 1733 ft 159 kts 17°
2026-05-06 17:40 38.71049 -9.17391 1545 ft 160 kts 17°
2026-05-06 17:40 38.72026 -9.16866 1301 ft 148 kts 18°
2026-05-06 17:41 38.72973 -9.16357 1102 ft 148 kts 18°
2026-05-06 17:41 38.73934 -9.15833 954 ft 152 kts 15°
2026-05-06 17:41 38.74919 -9.15308 776 ft 154 kts 19°
2026-05-06 17:41 38.75902 -9.14756 568 ft 154 kts 17°
2026-05-06 17:42 38.76877 -9.14254 367 ft 151 kts 17°
2026-05-06 17:42 38.77714 -9.13821 374 ft 104 kts 23°
2026-05-06 17:42 38.78184 -9.13561 378 ft 43 kts 26°
2026-05-06 17:42 38.78331 -9.13410 375 ft 23 kts 47°
2026-05-06 17:43 38.78385 -9.13299 375 ft 1 kts 73°
2026-05-06 17:44 38.78386 -9.13280 375 ft 5 kts 100°
2026-05-06 17:44 38.78362 -9.13265 372 ft 7 kts 174°
2026-05-06 17:45 38.78293 -9.13280 369 ft 12 kts 199°
2026-05-06 17:45 38.78198 -9.13328 370 ft 17 kts 202°
2026-05-06 17:45 38.78077 -9.13391 370 ft 21 kts 202°
2026-05-06 17:45 38.77933 -9.13469 367 ft 23 kts 203°
2026-05-06 17:46 38.77786 -9.13549 365 ft 16 kts 203°
2026-05-06 17:46 38.77669 -9.13612 369 ft 20 kts 202°
2026-05-06 17:46 38.77581 -9.13658 370 ft 12 kts 201°
2026-05-06 17:46 38.77493 -9.13705 368 ft 15 kts 202°
2026-05-06 17:47 38.77381 -9.13764 368 ft 17 kts 202°
2026-05-06 17:47 38.77337 -9.13787 367 ft 9 kts 197°
2026-05-06 17:47 38.77267 -9.13769 366 ft 12 kts 154°
2026-05-06 17:47 38.77210 -9.13751 365 ft 9 kts 186°
2026-05-06 17:48 38.77151 -9.13775 366 ft 6 kts 199°
2026-05-06 17:48 38.77124 -9.13787 365 ft 3 kts 199°
2026-05-06 17:48 38.77104 -9.13795 364 ft 0 kts 199°